GFSNGP_sfc_dewp_021.txt.gz
Dewpoint
30 27 25 24 23 23 22 24 23 25 27 33 35 36 37 37 37 37 37 37 37 36 36 33 30 30 29 30 32 34 32 32 32 34 34 32 34 36 34 30 28 25 25 27
28 31 29 26 27 28 25 27 27 27 29 36 36 36 35 37 37 37 36 36 36 35 32 31 28 26 27 28 31 34 33 33 34 36 35 36 36 35 35 29 24 24 25 26
28 32 31 25 29 27 27 28 28 26 31 35 35 34 36 37 37 36 36 36 35 34 33 29 26 26 26 26 27 27 26 31 33 35 36 37 37 37 33 25 24 25 25 26
24 24 9 30 30 30 30 29 29 33 35 35 35 36 37 37 37 36 36 35 36 35 33 25 25 25 25 24 24 25 27 32 34 35 35 36 37 35 30 26 24 25 26 26
25 25 25 28 32 31 30 29 37 37 37 37 37 36 36 36 37 36 36 35 31 24 23 23 23 23 22 22 22 22 32 33 35 37 36 36 36 34 34 28 27 28 27 27
28 18 14 28 33 34 34 27 40 39 38 37 36 29 34 36 36 36 26 23 22 22 20 21 21 21 22 21 22 28 30 30 32 34 36 36 34 34 32 26 28 28 28 27
23 18 27 34 34 35 25 26 40 40 39 38 35 36 37 37 35 24 22 21 20 18 19 20 20 21 21 22 26 28 29 30 32 36 36 36 34 32 27 25 27 26 25 25
28 26 22 35 33 28 33 41 41 39 39 39 40 40 38 28 24 23 19 16 17 19 20 21 20 22 22 25 27 28 29 29 29 31 33 33 30 28 25 25 24 23 15 18
30 29 34 36 35 39 41 41 39 39 41 40 39 37 28 25 24 21 16 16 18 19 21 21 23 26 26 27 28 29 28 28 28 27 27 27 24 23 24 24 21 21 22 16
33 36 35 39 42 42 41 40 40 41 40 39 37 30 26 25 21 20 18 18 20 21 21 24 25 28 28 27 29 28 28 28 28 28 28 27 24 24 24 21 19 22 19 18
33 36 36 41 41 41 41 41 41 41 39 31 28 26 21 22 21 21 19 21 21 22 24 25 28 28 28 27 29 28 27 27 27 26 26 26 24 22 25 22 21 19 18 17
31 38 38 41 41 43 42 41 39 37 28 28 22 21 21 20 21 21 22 24 24 26 27 29 29 29 28 29 28 27 26 25 25 25 24 25 25 25 27 25 25 24 21 15
38 43 43 42 41 41 41 40 35 28 26 22 22 21 21 22 24 26 25 26 27 28 30 29 29 30 31 29 27 27 25 25 24 24 25 27 27 25 23 24 27 27 26 23
42 41 40 39 39 41 36 31 31 23 23 23 22 23 25 25 27 27 27 29 29 30 30 30 28 29 31 30 28 25 24 23 23 23 26 27 25 25 26 20 20 18 24 25
41 40 40 40 39 32 29 22 23 22 22 23 25 27 28 28 27 28 29 30 30 30 29 29 30 29 29 30 29 26 26 23 22 25 25 27 26 26 25 25 24 19 20 21
39 40 41 40 38 23 23 23 22 23 25 25 27 28 30 29 29 29 30 30 28 28 29 28 31 31 31 30 28 26 25 22 23 26 25 26 26 25 25 25 24 23 16 14
37 37 34 24 24 23 24 25 25 26 27 27 27 28 29 29 28 28 28 27 26 29 27 30 31 33 30 30 28 24 23 23 23 27 27 26 25 25 25 24 24 22 18 15
27 26 25 24 24 26 28 27 26 27 27 28 26 21 19 20 26 26 28 29 29 28 28 30 31 32 30 30 27 24 22 21 21 20 21 23 26 26 24 21 23 22 20 15
24 24 25 27 29 28 27 27 27 28 25 24 21 23 23 23 27 28 28 28 28 27 27 28 31 31 30 27 23 21 18 18 25 26 26 23 22 24 25 20 24 24 22 14
24 28 28 28 29 27 27 28 26 29 29 26 20 20 28 29 29 29 28 28 29 29 30 32 32 30 28 26 23 22 17 15 23 25 19 21 21 24 22 25 23 17 18 20
23 25 24 27 28 27 28 26 24 28 29 23 25 30 25 25 24 28 28 27 27 26 31 33 32 31 30 27 25 23 20 18 16 26 22 18 19 21 24 25 22 16 15 21
27 26 25 26 27 29 29 29 29 27 28 25 23 22 22 24 24 25 29 28 29 31 33 31 32 32 31 30 27 27 24 23 21 24 25 23 19 21 24 23 25 24 17 18
27 27 27 25 24 28 28 29 26 28 26 26 29 28 24 27 27 28 28 27 30 31 32 32 32 33 32 31 30 28 25 22 19 21 27 27 26 25 25 25 24 25 25 23
28 28 28 28 26 28 28 29 30 30 27 27 27 25 25 26 28 29 31 31 31 31 32 33 32 31 32 31 27 25 28 27 24 23 24 26 26 26 25 23 23 24 25 25
28 27 28 26 28 29 30 31 30 29 28 28 28 27 25 26 28 31 32 32 32 32 32 32 32 31 30 29 29 28 28 28 27 26 27 27 27 26 24 19 22 25 27 25
28 29 29 29 29 30 29 29 29 29 26 24 24 21 21 22 27 28 29 28 31 32 32 32 33 33 32 32 30 29 28 28 28 28 27 26 26 26 25 23 24 23 24 25
29 26 28 28 29 29 29 27 23 26 25 23 28 22 23 23 23 24 23 27 30 31 32 32 32 32 32 32 32 30 29 30 29 28 27 26 24 23 23 23 24 25 25 24

GFSNGP_sfc_dewp_024.txt.gz
Dewpoint
29 27 26 24 24 24 22 25 24 24 27 33 35 36 37 37 37 37 36 36 36 35 34 32 30 28 27 29 31 32 29 32 34 35 34 32 33 35 38 37 36 34 29 27
23 32 31 24 25 27 27 25 25 30 32 36 36 35 36 38 37 36 36 35 35 34 33 33 31 26 26 26 27 28 28 32 34 35 35 36 37 37 36 37 36 28 28 27
21 31 28 23 27 28 26 28 27 25 31 35 34 36 37 36 36 36 35 35 35 35 35 33 25 25 23 24 25 25 31 33 35 35 35 35 36 37 36 34 33 32 27 26
20 20 4 24 30 29 29 31 34 34 34 35 35 37 37 37 36 35 35 34 33 31 27 24 23 22 23 22 23 29 33 34 35 36 35 35 35 35 35 34 33 27 27 26
16 23 19 26 31 29 27 28 37 35 36 36 37 36 35 35 36 36 35 34 26 22 22 22 21 22 22 22 25 29 30 30 32 34 35 36 35 34 33 30 26 27 27 26
28 11 7 20 33 33 32 27 39 38 37 36 35 27 31 36 35 35 29 22 18 18 20 19 20 20 22 23 27 28 29 29 31 34 34 34 33 32 31 27 27 27 26 26
16 15 24 28 34 34 25 25 40 39 38 37 33 33 35 38 34 26 21 17 19 19 19 20 21 23 24 26 26 28 29 29 29 30 32 33 33 33 29 27 26 24 22 23
23 17 19 33 34 28 32 39 40 39 38 37 38 38 39 29 24 20 16 17 18 20 21 22 24 26 25 25 27 29 28 28 27 28 28 26 27 25 25 24 23 22 11 16
29 28 31 35 34 36 41 40 39 38 40 39 40 38 27 25 22 20 18 18 20 20 22 24 25 27 26 27 28 29 28 27 27 28 27 25 23 23 24 23 20 20 22 14
32 33 35 36 42 42 41 40 40 41 41 41 39 29 23 22 21 21 19 19 21 22 23 24 27 28 28 28 28 28 27 27 27 25 26 26 23 24 22 19 17 22 19 17
32 35 39 41 40 40 40 40 40 41 40 36 26 22 22 20 21 21 21 23 24 25 26 27 29 29 29 29 29 27 26 26 25 25 25 26 23 23 24 22 21 19 18 16
31 34 35 39 41 41 40 40 40 38 26 23 22 21 21 22 23 24 25 25 26 28 28 29 29 29 30 29 29 27 26 25 24 24 23 25 24 23 25 26 28 28 25 16
37 42 42 41 42 42 42 40 37 27 23 22 22 22 24 24 25 27 26 27 29 29 30 29 29 29 31 31 31 30 26 26 24 25 25 23 24 25 22 23 26 26 27 26
42 41 39 40 39 42 40 34 27 23 24 24 24 26 26 26 27 26 27 29 29 30 29 29 29 29 30 30 29 29 27 25 23 24 22 22 25 25 25 18 14 15 22 25
41 40 39 40 40 31 25 23 23 22 24 24 27 27 28 27 27 27 29 29 30 29 29 29 29 29 31 30 29 29 27 23 19 25 25 24 25 24 23 20 19 22 15 18
40 40 40 38 26 23 23 24 23 25 25 25 26 26 29 29 28 29 29 29 27 27 28 28 25 28 32 32 30 29 26 22 19 24 25 24 24 23 24 20 23 22 15 12
40 39 33 26 25 25 25 26 25 25 26 26 26 27 28 27 27 28 28 28 28 28 29 28 27 30 32 32 31 28 25 23 23 26 26 25 24 24 24 22 22 15 21 16
33 29 27 27 27 29 28 27 26 25 25 27 25 18 18 20 25 25 27 28 28 27 27 27 29 31 32 33 31 27 23 22 20 19 19 15 20 22 25 21 17 15 15 14
27 28 29 28 29 28 27 27 26 27 24 22 20 20 18 23 26 27 26 22 27 26 26 25 29 32 32 31 28 22 17 14 16 20 20 21 12 17 23 22 18 23 21 14
26 28 29 28 27 25 25 26 25 27 28 25 17 21 27 24 23 23 23 23 26 27 27 27 30 31 30 30 29 23 18 14 16 18 21 20 13 14 23 21 24 17 12 11
24 25 25 26 27 25 24 24 22 26 28 22 25 28 25 25 22 20 20 25 27 25 26 27 32 31 31 30 29 27 24 22 21 19 22 22 15 15 18 23 22 24 14 6
26 25 24 24 25 27 27 28 29 25 25 29 28 26 21 25 22 20 21 25 29 24 28 31 31 32 32 32 31 29 29 26 25 24 23 24 24 17 16 21 20 23 18 11
26 26 26 24 22 26 27 27 25 24 25 25 25 25 29 27 23 21 25 27 28 30 31 31 30 31 32 32 32 30 28 27 25 24 24 24 25 23 23 23 24 22 21 21
28 28 27 28 25 26 26 28 28 29 26 26 26 26 26 23 21 25 27 26 30 26 31 31 32 31 32 32 31 30 29 27 26 25 25 24 25 24 25 24 21 20 23 23
27 27 27 25 27 28 28 29 29 28 28 28 27 27 25 28 28 28 23 24 23 26 29 29 32 32 32 32 30 29 28 28 28 28 26 25 26 25 26 24 22 21 21 23
28 28 28 29 29 29 29 28 27 26 23 23 22 22 29 30 29 25 23 20 23 28 29 30 30 30 31 32 32 32 31 30 29 28 28 28 27 27 25 23 22 22 21 22
28 25 28 28 29 29 28 26 27 31 25 26 28 29 26 27 23 19 18 25 19 27 26 25 26 28 29 30 31 31 31 31 30 29 29 29 28 27 25 22 22 21 21 22

GFSNGP_sfc_dewp_027.txt.gz
Dewpoint
28 28 25 22 22 25 24 25 22 23 26 27 34 35 36 36 37 36 36 35 35 34 33 32 32 27 26 26 27 28 29 31 33 34 34 35 35 36 36 36 36 37 35 32
25 31 30 23 23 23 23 25 27 26 30 35 36 36 37 37 37 36 35 35 34 34 34 34 26 24 24 23 25 26 29 32 34 34 34 34 34 35 36 37 33 34 34 31
16 28 23 16 21 27 26 27 26 27 30 36 34 35 37 37 36 35 35 34 34 34 33 25 23 23 22 23 24 25 32 33 34 35 34 34 35 34 34 33 33 32 30 26
17 19 5 19 28 29 26 29 32 34 35 34 34 36 37 37 36 36 35 34 31 25 24 23 22 21 23 22 23 31 31 32 33 33 33 34 34 33 34 34 30 28 26 25
17 19 17 20 30 29 27 26 35 34 35 35 37 35 34 36 35 34 34 33 24 21 22 21 19 20 21 22 27 28 28 29 30 31 33 33 33 32 32 30 27 27 26 25
25 9 5 17 31 33 30 25 37 36 36 36 36 29 32 36 36 35 25 20 17 19 19 19 19 21 22 25 26 27 28 28 30 30 31 31 31 31 32 29 27 26 25 24
16 13 21 25 33 33 22 21 38 37 37 36 34 34 34 37 36 26 18 17 20 20 20 20 22 24 25 26 26 27 28 29 28 28 28 28 29 30 28 26 25 24 23 23
26 18 19 31 32 28 31 35 39 39 38 37 37 37 39 35 23 18 17 18 20 21 22 23 24 26 25 25 27 27 28 27 27 28 27 24 25 25 25 24 23 23 9 15
28 28 30 32 34 35 38 39 39 39 39 39 39 38 32 24 21 19 18 19 21 21 23 25 25 27 26 27 28 28 28 27 27 26 27 25 22 23 23 22 19 19 21 14
30 30 33 33 37 40 40 39 39 40 40 40 39 30 25 22 21 19 19 21 22 24 25 26 27 28 29 29 29 28 27 27 27 25 25 26 23 23 22 19 17 21 18 17
31 33 37 39 40 40 40 40 40 41 40 39 33 24 22 21 21 21 22 24 25 26 27 27 29 29 29 29 28 27 27 27 26 25 24 26 23 23 25 23 21 19 18 17
30 34 35 34 40 40 39 39 40 37 27 25 23 21 21 22 23 24 24 26 27 28 28 29 29 28 29 30 30 30 29 28 27 25 23 25 25 23 25 25 27 28 28 16
34 36 37 39 40 40 40 41 35 25 22 22 22 22 23 24 25 27 26 27 28 28 30 29 28 28 29 30 29 30 29 29 29 25 25 23 24 25 23 22 25 25 26 27
41 41 38 39 39 42 40 31 28 23 24 25 25 25 25 26 26 25 26 28 28 29 28 28 28 29 30 30 30 29 29 28 27 26 27 24 24 25 24 23 14 16 22 24
41 40 40 41 41 35 24 22 23 24 25 26 26 27 27 26 26 26 28 29 28 28 28 27 26 27 28 30 31 30 29 28 26 23 25 22 24 21 23 23 17 17 14 17
40 39 39 37 27 23 24 25 24 25 25 25 25 26 28 28 28 28 28 28 26 26 27 27 26 27 28 30 33 32 30 27 25 22 23 23 23 20 23 22 21 22 13 13
38 37 27 26 28 29 29 26 26 26 27 26 25 27 27 25 25 27 27 26 23 23 27 28 27 28 29 32 33 32 30 26 25 25 22 21 20 21 23 23 23 17 14 10
32 31 32 34 34 31 28 28 27 26 25 26 24 18 18 21 25 24 23 23 22 23 25 26 26 28 30 32 31 31 28 25 23 19 18 12 16 17 17 18 19 19 15 14
35 35 35 33 30 29 29 28 27 27 24 22 20 21 20 21 24 25 23 20 21 23 26 24 26 27 30 31 30 30 25 20 18 18 17 15 11 14 15 17 21 21 22 16
35 34 33 30 28 26 25 25 26 27 27 24 18 24 26 23 21 21 19 22 25 27 27 27 26 27 29 30 30 29 26 22 19 17 12 16 16 14 12 15 18 21 20 16
25 25 25 27 27 26 25 25 23 26 27 20 21 27 28 26 22 19 19 24 26 24 26 24 27 30 30 30 31 30 28 26 24 23 21 21 22 20 16 14 17 18 17 19
25 25 24 24 25 25 26 26 27 23 23 22 22 29 28 27 24 21 21 24 27 22 25 27 30 30 30 31 31 31 30 28 27 26 23 22 23 23 21 20 17 19 22 19
27 27 27 25 24 27 27 26 23 22 23 24 23 24 23 26 26 22 25 25 25 23 29 30 29 29 30 32 32 31 30 29 28 27 26 25 25 25 25 23 22 22 22 20
27 27 27 27 25 25 25 27 27 28 24 25 24 23 23 25 25 24 27 28 23 20 27 29 28 29 30 30 30 30 30 30 29 28 27 26 26 26 26 25 24 23 22 22
27 27 27 25 27 27 28 28 28 27 26 26 26 26 25 24 25 22 21 23 20 25 23 24 27 28 29 29 29 29 30 30 29 28 28 27 26 27 26 27 26 24 22 22
28 28 28 28 28 28 28 28 27 27 24 25 26 23 23 21 27 30 26 19 25 19 17 19 18 21 24 25 25 26 27 29 30 30 29 28 28 27 27 27 26 23 22 23
27 24 27 27 28 28 27 27 27 28 30 29 28 30 28 29 30 28 22 23 20 20 18 16 15 16 16 15 16 17 18 22 24 27 29 30 28 28 28 27 25 23 22 21

GFSNGP_sfc_dewp_030.txt.gz
Dewpoint
28 29 25 21 21 28 24 23 21 21 24 24 32 34 35 36 36 36 35 35 34 34 33 32 32 27 25 25 26 27 27 30 32 33 33 33 33 34 35 35 35 34 33 32
28 30 28 24 23 23 24 23 26 25 24 29 36 36 36 36 36 36 35 34 33 33 34 34 25 23 23 22 24 26 26 32 33 33 33 33 34 34 34 34 34 34 32 29
19 26 21 16 22 23 24 27 24 23 26 36 35 35 36 36 36 36 35 34 34 34 30 25 22 22 21 22 24 25 31 32 32 33 33 32 33 33 32 32 30 30 27 25
16 18 6 17 26 27 26 27 27 30 32 35 35 35 37 38 36 36 35 34 33 26 24 23 22 20 22 22 22 30 29 29 29 31 31 32 32 34 31 32 32 28 25 24
15 17 15 14 25 28 27 24 32 31 34 34 36 36 35 37 37 36 36 34 28 22 23 22 19 20 21 22 27 27 27 28 28 30 29 30 30 30 30 31 30 27 25 24
20 9 4 16 25 31 29 25 32 34 34 35 35 30 34 36 36 35 35 23 18 21 19 19 20 21 21 23 25 26 27 28 29 28 27 27 27 28 30 30 27 26 24 23
16 12 19 22 30 31 22 23 36 36 36 35 34 35 34 36 35 31 20 17 20 20 20 20 22 23 24 25 25 26 28 28 28 27 27 26 25 27 28 26 25 23 23 23
23 15 18 28 32 27 30 32 37 37 36 36 36 35 37 36 23 18 18 20 20 21 22 23 24 25 25 25 27 28 28 28 27 27 27 25 24 24 25 23 23 23 10 15
26 27 29 30 34 34 34 34 37 37 38 38 37 37 30 23 21 20 18 19 21 22 24 26 26 27 27 28 29 29 28 28 27 27 25 25 24 23 23 22 19 19 20 15
28 28 31 32 33 38 37 38 39 39 39 39 38 34 24 25 26 20 20 21 22 24 25 26 28 29 29 29 29 29 28 27 27 27 25 25 24 23 22 19 17 20 19 18
30 32 33 35 38 36 39 39 39 40 40 39 30 28 31 27 21 21 22 24 25 27 27 27 29 29 28 28 29 27 27 28 27 28 26 24 25 23 25 23 22 20 20 18
28 30 32 32 37 40 39 39 40 38 34 31 33 29 23 23 24 24 24 25 27 27 27 29 29 27 28 29 29 29 29 29 29 29 26 24 25 26 26 26 26 28 28 20
32 35 35 37 39 39 39 39 36 30 26 23 23 23 24 24 25 26 25 27 27 27 29 28 28 28 28 28 28 28 28 30 29 29 27 25 24 24 24 25 26 26 26 26
39 39 37 38 38 41 39 29 26 24 25 25 26 26 26 26 26 25 25 28 29 29 28 28 27 27 28 28 28 28 30 29 29 28 27 27 23 23 24 22 18 15 21 25
40 39 38 39 39 27 25 23 24 27 28 28 27 27 28 26 25 26 28 29 29 28 27 27 25 25 26 28 28 30 31 30 29 27 26 25 24 23 20 18 21 18 15 18
39 39 34 30 24 24 28 31 31 30 27 26 26 29 28 28 27 28 28 29 26 25 26 22 23 26 28 28 28 31 32 30 29 26 25 21 20 22 23 21 21 22 19 15
36 29 27 30 33 34 34 34 31 27 28 29 28 27 28 27 26 27 27 25 23 22 23 23 25 27 28 29 29 31 31 31 28 26 25 20 19 17 19 20 21 22 21 16
35 35 35 36 34 32 31 31 31 29 26 25 27 24 23 24 25 25 24 22 18 21 24 25 25 26 27 28 29 30 29 29 27 25 22 14 17 17 16 16 16 17 18 16
35 34 35 34 34 34 33 30 28 27 26 25 23 25 24 24 24 25 22 18 19 20 25 24 26 25 26 27 27 29 29 29 26 23 21 17 14 17 14 12 14 15 16 17
35 35 35 34 31 27 25 25 26 26 27 25 21 24 26 25 21 20 18 22 25 26 26 26 25 25 25 28 29 29 29 28 25 24 21 20 19 20 20 16 17 17 17 18
25 25 26 28 27 26 25 25 23 26 27 21 22 24 23 28 29 24 22 25 26 24 25 23 23 25 29 29 30 30 30 29 26 24 24 23 22 22 22 22 21 20 20 17
25 25 23 23 24 25 26 26 27 22 22 20 18 19 24 28 28 25 22 24 28 22 23 23 27 29 29 29 29 30 30 30 29 28 26 25 25 25 24 24 23 23 22 21
27 27 26 23 22 26 26 25 21 21 21 22 21 22 21 25 24 20 25 25 24 22 25 28 30 29 29 29 30 29 28 28 28 28 27 27 26 26 26 25 24 24 24 23
27 27 27 27 24 25 26 28 28 27 22 23 23 22 22 24 26 23 25 24 22 28 25 29 28 27 27 28 27 28 28 28 29 29 28 28 27 26 26 26 26 25 25 25
27 28 27 26 27 27 27 27 26 25 26 27 27 26 24 23 24 27 21 23 27 25 27 21 21 19 18 21 23 22 22 23 25 26 28 29 28 27 26 26 26 26 26 25
27 26 26 27 24 23 24 24 23 24 25 25 25 28 28 26 25 23 27 30 26 25 23 21 17 14 12 14 13 14 14 16 17 18 21 23 26 27 28 27 27 27 27 25
24 21 21 21 21 20 20 20 20 21 21 23 25 27 29 29 29 29 29 27 18 19 19 16 12 12 11 10 9 9 10 11 10 10 12 14 17 23 28 28 29 27 25 23

GFSNGP_sfc_dewp_033.txt.gz
Dewpoint
28 28 26 21 25 28 24 25 25 22 23 23 27 35 36 38 38 37 36 35 35 34 34 33 33 29 28 27 28 28 26 30 34 34 33 33 33 34 36 35 34 35 34 34
28 29 27 25 24 24 27 25 25 25 24 27 31 35 36 37 37 37 36 36 35 34 33 34 30 26 25 25 25 28 26 30 33 33 33 33 33 34 35 34 34 34 33 29
24 25 21 24 25 25 24 26 27 24 26 35 35 35 36 37 37 37 36 36 34 34 34 32 26 25 23 23 25 26 28 32 31 31 31 32 32 33 32 34 33 34 31 27
26 22 17 21 27 26 26 26 26 27 30 34 34 36 37 37 37 37 37 36 35 33 28 26 24 23 24 22 24 27 31 29 29 30 30 30 30 29 31 35 34 33 28 26
27 20 17 14 21 27 28 23 28 28 32 35 36 36 36 38 39 39 38 37 34 27 26 24 21 21 22 23 26 28 27 28 28 30 29 28 28 29 30 32 34 32 27 25
24 22 18 20 21 32 30 28 29 32 35 36 35 36 34 38 39 38 37 33 24 24 22 21 21 23 23 23 26 26 28 28 29 30 28 28 28 27 30 33 33 29 25 24
21 26 24 24 25 32 26 28 34 36 36 37 36 39 37 38 37 35 28 20 22 21 21 22 23 24 24 26 26 27 29 29 29 28 28 28 27 26 27 28 28 28 26 25
25 25 24 28 32 32 34 34 35 37 38 38 38 37 37 36 30 22 18 20 21 22 23 25 25 25 25 26 28 29 30 29 29 29 27 27 27 25 25 26 26 26 27 26
28 30 32 30 36 35 35 35 36 39 38 38 37 37 33 26 20 19 21 24 21 22 25 26 26 27 27 28 30 29 29 28 29 28 28 27 25 25 24 24 25 26 24 25
31 30 31 33 34 35 36 38 38 40 40 39 38 36 25 22 28 28 23 21 23 24 25 26 28 29 30 29 28 29 29 28 28 28 28 29 25 24 23 25 25 24 24 23
32 33 33 33 36 38 37 40 40 40 41 40 37 26 25 31 27 23 23 24 24 26 26 25 29 29 28 28 29 28 29 29 29 29 29 28 26 25 25 26 26 25 24 26
33 32 33 34 36 40 40 40 40 40 36 32 30 30 29 26 24 25 25 25 26 26 26 27 28 28 28 29 29 29 30 30 30 30 30 29 26 25 28 28 28 27 27 29
35 37 36 38 39 40 40 40 37 33 29 27 25 25 26 28 30 28 25 26 26 26 28 28 28 27 27 29 29 30 29 30 31 31 30 29 28 27 26 26 28 28 28 27
40 40 39 39 40 39 32 27 27 26 29 30 31 31 30 29 27 24 24 26 27 28 28 27 27 26 27 27 28 30 29 31 31 31 31 31 29 29 28 27 26 25 26 24
40 41 40 34 27 25 26 29 32 33 33 33 30 29 29 26 24 25 27 28 28 28 27 26 26 26 27 28 28 28 29 29 31 31 31 31 30 29 28 28 27 25 25 24
32 27 27 30 31 32 32 32 31 31 31 32 33 31 29 27 28 28 28 28 28 27 26 27 26 27 28 28 28 28 28 31 32 31 30 30 29 27 26 26 26 26 25 25
35 31 34 33 32 33 34 34 33 33 34 35 32 28 28 29 28 28 28 29 29 28 28 27 27 27 28 29 28 29 29 29 31 31 29 29 30 28 27 26 25 25 25 28
35 35 35 34 34 33 34 34 34 34 32 28 29 29 28 27 28 28 28 28 26 26 28 28 28 28 28 28 29 30 30 29 29 29 29 29 28 28 27 25 24 24 25 26
37 35 35 35 35 35 35 34 32 30 29 28 28 28 28 27 27 27 27 25 26 27 28 29 28 29 28 29 29 30 31 31 30 29 29 28 28 27 26 26 25 25 25 25
34 35 35 34 32 30 28 28 29 28 28 27 27 27 28 28 27 26 26 26 28 30 31 29 29 28 29 28 29 28 29 29 28 30 29 29 28 28 28 26 25 26 27 27
26 26 26 27 27 27 27 27 27 28 28 25 26 27 26 26 27 30 28 28 30 30 29 27 27 28 28 29 29 30 30 30 31 31 30 30 29 28 28 29 29 29 28 29
27 27 26 25 26 27 28 28 27 26 26 25 24 22 22 26 28 28 29 29 30 26 28 29 29 30 30 30 29 31 30 30 29 29 29 31 30 30 30 29 29 30 30 29
27 27 27 26 26 27 27 28 26 26 25 26 26 27 27 28 28 28 28 31 28 30 28 30 30 30 30 32 32 31 29 29 29 29 30 30 30 30 30 30 30 30 30 30
29 29 28 28 27 26 24 24 25 25 25 26 26 25 27 27 28 29 30 29 27 26 29 30 30 29 25 27 26 26 25 25 24 24 25 25 28 30 30 30 29 30 30 30
27 26 25 24 21 20 20 19 21 22 22 22 23 24 26 26 28 29 29 28 28 28 30 28 24 21 23 21 19 18 18 18 18 18 19 20 22 24 26 27 30 30 30 31
21 20 20 20 19 17 16 16 17 19 18 18 20 22 23 24 25 26 28 28 30 30 28 25 21 19 18 16 15 14 14 14 13 13 12 14 14 15 17 19 24 29 31 31
18 16 15 15 14 14 13 12 14 13 15 17 17 20 19 21 23 22 23 27 29 25 21 18 17 14 14 13 12 12 12 11 9 9 10 11 11 13 14 16 19 26 31 30

GFSNGP_sfc_dewp_036.txt.gz
Dewpoint
27 26 25 23 24 26 22 22 24 17 15 12 18 23 28 36 38 39 39 38 38 38 36 33 33 32 31 31 29 26 24 24 27 32 32 31 33 32 32 34 33 33 33 33
29 28 27 25 24 22 25 23 24 22 21 22 24 27 32 37 38 38 38 38 37 37 35 33 33 32 30 28 26 25 25 25 29 32 30 31 31 31 32 33 32 32 32 31
23 25 24 32 28 24 23 27 27 25 25 25 28 29 31 35 37 38 38 38 37 36 34 33 33 29 27 24 25 25 24 27 30 30 30 30 29 29 29 31 32 33 32 31
31 28 29 15 22 23 25 24 23 24 22 25 26 32 35 35 37 38 38 38 38 36 34 33 28 25 25 22 23 24 25 28 28 29 28 28 28 29 30 31 32 31 32 31
36 22 18 12 17 19 22 16 22 22 23 27 34 36 36 37 38 39 40 39 38 35 31 27 24 23 22 22 22 24 25 25 26 27 27 28 28 30 30 29 29 31 32 30
31 34 33 22 26 31 30 23 25 30 30 34 35 35 24 38 39 40 39 39 35 29 26 23 22 22 22 21 23 22 25 26 26 27 28 28 29 29 29 29 28 31 30 29
33 36 28 23 23 32 24 24 31 34 35 36 36 33 38 38 40 39 39 34 27 24 21 22 23 24 22 22 22 24 27 27 26 26 27 29 29 29 28 27 28 30 31 29
33 35 30 27 32 31 34 35 33 36 37 39 38 39 38 39 38 35 30 23 21 22 25 26 24 24 19 21 24 27 28 26 26 27 28 26 28 28 27 27 27 28 33 31
31 31 30 31 35 35 37 37 37 38 37 39 40 38 37 37 34 27 23 20 27 29 28 26 24 23 21 22 28 28 27 26 27 28 27 26 27 27 26 25 26 26 25 26
32 28 30 31 32 33 34 36 36 36 37 39 39 39 35 31 26 25 28 27 25 28 23 24 26 26 26 27 27 27 27 27 27 28 27 26 25 25 25 26 26 25 25 24
33 31 30 30 32 36 38 40 39 39 40 41 40 39 31 28 31 29 26 30 29 24 23 21 24 26 26 26 28 26 27 27 28 29 28 26 25 25 26 26 27 26 25 25
35 34 35 35 38 40 40 40 41 41 39 38 38 32 31 31 28 30 32 29 23 24 25 24 26 25 26 26 27 28 28 28 29 29 29 27 26 25 28 28 28 28 28 29
38 40 41 41 41 41 40 38 38 36 34 33 31 29 29 32 35 33 28 26 24 24 25 26 26 26 26 28 30 30 29 29 30 29 29 29 29 29 27 28 29 29 29 29
40 41 40 38 36 33 32 32 34 33 34 34 35 35 35 35 32 28 24 24 25 26 27 26 25 25 27 27 28 29 30 30 29 29 30 30 30 31 30 28 28 29 29 27
35 39 37 33 31 32 33 34 32 31 32 34 34 35 33 31 30 27 25 27 28 28 27 26 24 24 25 29 28 28 28 28 31 32 32 31 31 32 31 29 27 27 28 26
34 35 35 33 32 31 32 34 33 34 35 34 31 33 32 29 26 27 28 29 29 27 27 33 32 29 30 29 29 29 29 29 30 30 31 32 29 30 30 30 29 26 26 26
35 34 33 33 34 35 36 35 34 33 33 33 35 33 28 29 31 29 29 30 34 33 34 34 32 28 30 30 30 29 29 29 29 29 29 28 29 30 31 31 29 28 29 33
35 34 35 34 35 35 35 35 35 35 33 30 32 33 33 32 30 31 33 35 33 33 32 32 33 30 29 30 30 30 32 32 32 32 33 33 29 29 31 31 29 29 30 29
34 33 33 33 34 34 32 30 29 30 33 33 32 33 33 33 31 30 32 32 31 32 30 34 31 31 30 30 30 31 34 33 31 30 31 32 32 30 29 32 31 32 30 30
30 31 30 29 28 29 30 29 34 29 30 31 32 33 33 33 33 32 32 31 32 31 31 31 31 31 31 31 29 30 33 32 29 30 31 31 32 31 32 30 31 32 32 32
26 28 28 28 28 32 33 32 33 30 30 31 30 30 29 31 31 31 32 30 31 36 32 31 31 31 30 30 30 34 34 33 33 32 31 31 31 32 32 32 32 32 32 32
27 29 32 31 31 30 31 28 28 29 28 27 28 28 28 28 29 30 31 30 30 30 30 31 32 33 33 32 33 34 33 32 32 33 32 32 31 31 32 32 32 32 32 32
30 30 30 30 30 28 28 25 26 26 25 26 26 26 25 25 25 26 25 26 29 29 28 31 31 31 31 32 33 32 32 30 29 29 29 29 29 30 31 31 32 32 32 32
29 28 27 25 24 22 19 17 19 20 23 23 23 24 23 25 27 23 25 27 27 29 31 32 31 31 30 32 31 30 28 26 25 24 23 22 24 23 24 26 27 30 31 32
26 23 21 21 18 17 15 14 15 15 16 16 17 18 20 21 23 24 27 27 25 27 31 29 29 25 28 27 26 24 24 22 20 20 19 19 19 19 20 21 21 22 24 28
19 18 17 16 15 14 13 12 13 15 15 17 17 20 20 20 21 22 24 23 24 22 23 23 20 22 22 20 20 19 20 18 17 17 16 17 16 17 17 17 18 19 21 25
16 15 15 15 12 11 12 12 14 14 15 17 16 17 17 19 20 19 19 19 19 19 19 18 17 15 15 16 15 16 16 15 12 12 13 13 13 13 13 14 15 17 19 20

GFSNGP_sfc_dewp_042.txt.gz
Dewpoint
19 20 22 25 24 22 21 24 28 27 20 17 19 22 22 29 29 29 31 37 39 42 44 45 45 44 42 41 39 40 36 33 34 34 34 33 33 34 35 35 33 34 34 34
30 27 25 24 23 20 20 20 18 19 20 21 20 24 24 25 23 24 29 34 40 42 43 44 43 41 40 38 39 37 35 33 33 31 32 33 33 35 35 34 33 33 33 33
34 28 25 29 27 23 21 21 22 23 25 24 22 21 27 29 27 29 31 33 39 40 42 43 41 41 39 38 38 34 32 31 30 31 31 32 31 30 30 32 34 34 33 33
37 32 28 22 19 16 17 15 15 16 19 18 27 27 27 29 30 33 35 35 39 41 42 42 41 39 39 34 31 33 31 28 27 30 30 30 30 30 32 33 33 33 32 33
36 30 25 22 18 19 20 19 21 20 21 20 25 29 33 31 34 35 36 37 39 41 42 42 39 36 32 31 30 28 28 27 25 27 27 28 28 31 32 32 32 31 31 32
36 35 29 29 24 24 23 29 27 26 28 27 26 36 36 35 36 35 35 36 38 40 40 38 33 31 30 26 29 27 26 27 27 28 27 27 29 31 32 32 30 30 30 32
35 37 35 27 25 27 29 33 33 32 32 34 34 40 40 39 36 36 36 38 40 38 35 31 30 30 31 31 30 28 28 28 26 26 27 28 30 30 30 30 30 31 30 31
40 35 32 26 25 28 37 37 35 35 36 39 40 39 39 37 37 37 37 34 33 31 31 32 32 32 30 29 26 27 30 30 29 29 28 25 30 30 30 30 30 30 32 30
37 37 35 30 31 33 36 36 38 38 37 37 38 36 37 38 38 36 30 28 27 31 32 32 32 30 29 27 27 30 31 31 29 29 27 27 29 29 29 29 29 29 30 29
35 27 28 29 32 38 38 40 38 38 39 41 41 41 39 37 33 31 33 34 34 35 34 34 30 26 26 29 30 30 29 29 29 29 29 29 29 28 28 31 30 30 29 29
32 31 31 36 40 41 40 41 40 40 38 37 39 38 34 31 33 35 35 34 33 32 29 24 27 29 29 28 29 27 28 27 29 31 31 31 29 29 29 30 31 30 30 31
41 38 40 40 38 38 37 36 36 37 34 34 34 34 36 36 35 34 33 31 28 28 28 29 28 26 26 27 27 28 28 29 32 33 32 31 29 28 30 29 30 30 30 29
40 40 41 38 36 36 35 35 36 36 36 36 37 36 34 33 31 31 29 29 29 29 28 27 27 27 27 28 30 31 30 31 31 30 31 30 29 29 29 30 31 31 31 30
38 40 37 36 36 36 36 35 35 34 34 34 33 33 33 33 32 31 30 29 26 25 26 25 25 26 28 27 29 30 31 30 30 30 31 32 32 31 30 29 29 28 30 30
36 37 36 36 34 34 34 33 33 33 33 34 34 33 31 28 26 26 27 25 26 26 25 24 26 27 28 32 30 31 31 31 31 32 33 32 32 31 30 30 30 29 29 29
35 35 34 34 33 33 33 33 33 34 33 33 32 30 26 25 24 25 26 31 32 31 31 29 30 31 32 31 29 29 29 30 30 32 33 32 32 32 32 31 30 29 29 29
34 33 34 33 32 31 31 33 32 32 30 29 31 31 30 31 30 31 31 33 33 32 32 33 32 32 34 33 32 31 32 31 31 31 32 33 33 32 33 32 31 30 29 30
35 34 34 33 33 33 32 31 31 31 31 32 31 31 30 30 31 31 31 31 31 31 32 33 31 31 32 33 32 32 32 32 31 31 32 32 33 32 31 29 27 28 31 30
33 32 33 31 31 29 29 30 32 33 31 31 30 30 30 30 28 29 30 28 27 28 30 30 28 27 26 26 28 28 29 30 31 30 31 31 31 30 30 30 29 29 30 29
31 29 29 31 32 32 31 33 33 31 30 28 26 25 26 23 25 26 26 27 27 26 24 24 24 24 24 25 27 26 26 27 28 29 32 31 31 30 30 28 28 29 30 31
28 29 31 31 31 31 30 30 27 25 25 25 25 24 22 23 25 23 24 22 24 23 23 23 22 24 25 24 24 26 27 27 28 28 30 32 31 28 29 28 28 29 30 30
30 32 33 32 30 28 25 25 26 25 25 22 20 19 19 20 21 22 22 22 22 22 22 21 25 19 18 19 24 27 28 29 29 30 30 30 28 26 25 25 24 23 24 25
32 31 30 29 28 25 23 21 25 24 22 20 21 21 21 20 21 20 19 20 22 20 20 22 19 15 14 21 22 22 22 24 23 24 24 24 24 23 22 22 21 20 20 20
31 29 27 25 25 22 19 16 16 19 21 21 21 20 20 20 21 21 22 20 19 18 19 21 17 14 14 18 17 17 18 18 17 18 18 20 20 20 20 19 17 18 18 19
25 24 22 24 20 18 15 13 15 16 17 16 18 17 18 20 21 20 21 20 18 18 18 18 17 13 14 15 15 14 14 15 13 13 13 14 14 15 15 13 13 13 14 14
24 22 19 17 15 14 15 14 16 17 16 19 19 19 21 21 20 19 20 18 18 17 17 17 16 15 13 12 12 11 11 11 10 10 10 10 11 11 10 10 9 10 10 11
19 21 18 18 14 13 15 16 17 16 18 19 16 18 19 20 19 17 15 17 16 16 15 15 15 14 13 11 11 10 10 9 8 8 8 7 8 7 7 7 8 8 8 11

GFSNGP_sfc_dewp_045.txt.gz
Dewpoint
25 27 27 26 27 26 24 28 26 27 26 26 24 22 23 27 29 28 33 40 41 42 46 48 48 48 44 42 39 39 38 37 38 38 35 34 34 34 34 33 32 32 33 34
30 31 27 26 26 25 24 23 24 24 24 26 24 24 24 24 24 26 30 33 41 46 46 46 46 43 41 38 39 39 38 36 34 35 33 35 33 33 33 33 32 33 32 33
28 27 25 22 25 24 25 25 24 22 25 27 26 27 28 27 30 30 32 34 39 42 44 45 43 42 38 38 40 38 33 32 33 34 33 32 31 30 29 30 31 32 31 32
28 26 15 26 23 18 20 22 22 21 22 26 26 31 31 33 33 33 35 35 38 40 41 41 42 39 38 35 32 32 30 31 31 31 30 30 29 29 30 32 32 31 31 31
24 25 27 25 24 26 23 24 27 27 27 27 27 32 36 35 35 34 34 36 39 41 39 37 34 32 31 31 29 30 29 28 30 31 30 30 29 32 32 31 31 31 30 30
29 24 17 29 25 28 26 26 32 32 32 35 33 33 37 38 38 37 37 36 36 32 30 30 30 29 30 28 28 29 30 29 30 31 30 31 31 31 31 31 30 30 29 31
25 24 30 32 28 31 20 27 35 34 35 35 36 38 38 38 38 34 31 31 31 31 31 31 32 31 31 30 28 29 31 32 32 32 31 30 30 29 28 29 29 30 30 30
31 30 26 29 28 27 36 35 36 36 37 37 38 38 39 38 32 30 30 30 30 31 30 30 29 29 28 28 29 31 32 32 32 32 31 30 29 29 29 29 29 29 27 28
33 33 38 33 38 40 40 38 38 39 41 42 41 41 37 32 33 33 33 33 34 33 32 29 28 28 28 28 29 32 32 32 32 32 30 29 28 29 29 29 28 28 28 26
30 34 32 40 41 41 42 41 39 38 38 39 38 33 33 34 34 34 34 34 34 33 31 30 29 27 30 30 31 31 30 30 30 30 30 29 30 29 28 27 25 28 27 27
31 38 40 38 40 40 39 39 35 35 35 35 35 35 35 34 33 32 31 31 30 29 28 27 30 30 30 29 30 27 28 29 29 30 30 30 31 29 28 27 27 26 26 27
33 40 38 37 37 37 36 36 36 36 36 36 35 34 34 33 33 31 31 30 29 29 30 30 30 27 27 27 27 27 28 28 28 28 28 29 29 28 30 29 30 31 31 27
40 39 37 36 37 37 36 36 36 36 35 34 34 33 32 31 30 31 31 30 29 29 29 26 26 26 27 28 28 27 27 28 28 29 28 28 27 27 27 28 31 31 31 32
39 37 36 37 35 36 35 35 35 34 33 33 33 33 32 31 31 31 30 28 26 26 26 26 27 27 29 29 29 27 28 29 29 29 29 29 29 29 29 28 26 26 29 30
36 38 36 35 35 34 33 33 33 33 33 33 33 33 31 28 27 27 30 30 29 29 30 29 29 28 30 31 30 29 28 28 29 29 29 29 31 31 31 30 27 27 28 26
35 35 34 34 33 33 33 33 33 32 31 29 29 29 29 29 30 31 32 31 29 28 29 28 28 31 32 33 32 32 33 31 31 31 30 31 30 30 31 31 31 31 29 27
34 33 33 33 32 32 33 32 30 30 30 29 29 29 30 29 29 29 28 29 29 27 29 31 28 27 28 26 25 25 27 28 27 28 28 29 29 30 31 31 31 29 27 26
35 35 34 34 33 32 31 31 31 30 29 29 29 28 27 26 25 26 26 26 22 22 24 26 24 24 23 24 25 25 26 26 25 24 25 26 26 29 31 28 24 23 24 25
34 33 33 33 31 31 31 31 29 28 27 28 23 24 24 21 24 26 24 19 20 20 22 23 22 22 23 23 19 18 19 21 22 23 24 25 27 27 30 28 27 24 22 24
31 32 32 31 31 31 30 30 28 26 26 23 18 14 18 15 14 14 18 20 21 22 22 20 22 17 15 15 17 19 22 23 23 25 27 26 27 26 28 28 25 26 26 26
30 30 29 29 29 27 25 24 24 24 24 15 15 11 10 15 15 11 18 20 22 18 18 18 18 14 12 14 18 19 18 19 20 20 22 22 23 23 24 23 22 17 17 18
32 30 29 27 25 24 26 24 24 20 17 12 7 7 8 17 15 17 13 19 21 13 16 20 17 10 12 13 15 15 14 16 13 15 15 17 19 19 20 19 17 16 16 15
31 30 29 26 23 22 22 23 17 15 11 11 9 12 14 18 19 15 17 19 18 15 17 18 9 7 8 11 12 11 10 11 9 10 11 13 13 15 14 12 13 13 13 13
30 27 25 24 24 21 16 17 21 18 12 17 11 8 16 11 8 19 20 14 9 7 9 13 11 8 3 3 7 8 7 8 7 6 8 8 9 10 9 10 9 10 10 10
25 25 24 22 19 18 16 18 19 18 18 19 17 16 17 19 10 13 9 9 12 9 7 8 10 9 1 -3 -2 -1 0 2 4 5 5 5 6 5 6 7 7 8 8 8
23 19 18 17 17 17 17 18 18 17 17 13 12 6 10 14 14 11 8 8 10 10 6 1 2 5 3 -3 -4 -4 2 3 1 5 1 0 2 1 2 4 5 6 6 7
21 20 18 16 16 17 17 17 13 12 11 4 4 6 11 12 4 8 2 -1 0 6 -0 0 1 -1 1 2 -4 -1 -5 -5 -4 2 -9 -5 -2 -3 -0 1 2 4 4 4